When you browse on this site, cookies collect data to enhance your experience and personalize the content and advertising you see.
Visit our Privacy Policy to learn more. By continuing to use the site, you agree to this use of cookies and data.

Stündliche Wetter Tepatepec

Heute, 7 August, Freitag

Zeit Temperatur Niederschläge Wind Luftdruck Luftfeuchtigkeit
00:00 +16°C° 0 mm 1 m/S 601 mmHg 94%
01:00 +16°C° 0 mm 1 m/S 601 mmHg 93%
02:00 +16°C° 0 mm 1 m/S 601 mmHg 92%
03:00 +16°C° 0 mm 1 m/S 601 mmHg 91%
04:00 +16°C° 0 mm 1 m/S 601 mmHg 90%
05:00 +16°C° 0 mm 1 m/S 602 mmHg 89%
06:00 +18°C° 0 mm 1 m/S 602 mmHg 84%
07:00 +19°C° 0 mm 1 m/S 603 mmHg 79%
08:00 +20°C° 0 mm 1 m/S 603 mmHg 73%
09:00 +20°C° 0 mm 2 m/S 603 mmHg 69%
10:00 +21°C° 0 mm 2 m/S 604 mmHg 64%
11:00 +22°C° 0 mm 3 m/S 604 mmHg 59%
12:00 +23°C° 0.3 mm 4 m/S 603 mmHg 58%
13:00 +25°C° 0.3 mm 5 m/S 603 mmHg 57%
14:00 +24°C° 0.3 mm 6 m/S 603 mmHg 56%
15:00 +23°C° 0.3 mm 6 m/S 602 mmHg 60%
16:00 +22°C° 0.3 mm 5 m/S 602 mmHg 63%
17:00 +21°C° 0.3 mm 5 m/S 602 mmHg 67%
18:00 +19°C° 0 mm 4 m/S 602 mmHg 75%
19:00 +18°C° 0 mm 3 m/S 602 mmHg 84%
20:00 +16°C° 0 mm 2 m/S 602 mmHg 93%
21:00 +16°C° 0 mm 2 m/S 602 mmHg 94%
22:00 +16°C° 0 mm 1 m/S 602 mmHg 95%
23:00 +15°C° 0 mm 1 m/S 602 mmHg 96%

Morgen, 8 August, Samstag

Zeit Temperatur Niederschläge Wind Luftdruck Luftfeuchtigkeit
00:00 +15°C° 0 mm 1 m/S 602 mmHg 95%
01:00 +15°C° 0 mm 1 m/S 601 mmHg 95%
02:00 +14°C° 0 mm 1 m/S 601 mmHg 95%
03:00 +14°C° 0 mm 1 m/S 601 mmHg 94%
04:00 +14°C° 0 mm 1 m/S 601 mmHg 94%
05:00 +14°C° 0 mm 1 m/S 601 mmHg 94%
06:00 +15°C° 0 mm 1 m/S 602 mmHg 88%
07:00 +16°C° 0 mm 1 m/S 603 mmHg 82%
08:00 +19°C° 0 mm 1 m/S 603 mmHg 77%
09:00 +19°C° 0 mm 2 m/S 604 mmHg 72%
10:00 +20°C° 0 mm 2 m/S 604 mmHg 67%
11:00 +22°C° 0 mm 3 m/S 604 mmHg 62%
12:00 +22°C° 0.6 mm 3 m/S 604 mmHg 64%
13:00 +22°C° 0.6 mm 4 m/S 603 mmHg 66%
14:00 +22°C° 0.6 mm 5 m/S 603 mmHg 69%
15:00 +21°C° 0.3 mm 5 m/S 603 mmHg 71%
16:00 +20°C° 0.3 mm 5 m/S 602 mmHg 74%
17:00 +20°C° 0.3 mm 5 m/S 602 mmHg 76%
18:00 +19°C° 0 mm 4 m/S 602 mmHg 81%
19:00 +18°C° 0 mm 3 m/S 603 mmHg 85%
20:00 +17°C° 0 mm 2 m/S 603 mmHg 89%
21:00 +16°C° 0 mm 2 m/S 603 mmHg 90%
22:00 +16°C° 0 mm 2 m/S 603 mmHg 91%
23:00 +16°C° 0 mm 1 m/S 603 mmHg 92%

übermorgen, 9 August, Sonntag

Zeit Temperatur Niederschläge Wind Luftdruck Luftfeuchtigkeit
00:00 +16°C° 0 mm 2 m/S 603 mmHg 92%
01:00 +16°C° 0 mm 2 m/S 602 mmHg 92%
02:00 +16°C° 0 mm 2 m/S 602 mmHg 92%
03:00 +16°C° 0 mm 2 m/S 602 mmHg 92%
04:00 +15°C° 0 mm 2 m/S 602 mmHg 92%
05:00 +15°C° 0 mm 2 m/S 602 mmHg 92%
06:00 +16°C° 0 mm 2 m/S 603 mmHg 88%
07:00 +17°C° 0 mm 2 m/S 603 mmHg 84%
08:00 +17°C° 0 mm 2 m/S 604 mmHg 81%
09:00 +18°C° 0 mm 2 m/S 604 mmHg 77%
10:00 +19°C° 0 mm 2 m/S 604 mmHg 74%
11:00 +20°C° 0 mm 2 m/S 604 mmHg 71%
12:00 +20°C° 0.2 mm 3 m/S 604 mmHg 70%
13:00 +21°C° 0.2 mm 3 m/S 603 mmHg 70%
14:00 +21°C° 0.2 mm 3 m/S 603 mmHg 69%
15:00 +20°C° 0.4 mm 3 m/S 603 mmHg 73%
16:00 +20°C° 0.4 mm 3 m/S 602 mmHg 77%
17:00 +19°C° 0.4 mm 3 m/S 602 mmHg 81%
18:00 +18°C° 0.7 mm 3 m/S 602 mmHg 85%
19:00 +17°C° 0.7 mm 2 m/S 602 mmHg 90%
20:00 +17°C° 0.7 mm 2 m/S 603 mmHg 94%
21:00 +18°C° 2.2 mm 1 m/S 603 mmHg 95%
22:00 +16°C° 2.2 mm 1 m/S 603 mmHg 96%
23:00 +16°C° 2.2 mm 1 m/S 603 mmHg 96%

10 August, Montag

Zeit Temperatur Niederschläge Wind Luftdruck Luftfeuchtigkeit
00:00 +16°C° 0.9 mm 1 m/S 603 mmHg 96%
01:00 +16°C° 0.9 mm 1 m/S 602 mmHg 95%
02:00 +16°C° 0.9 mm 1 m/S 602 mmHg 95%
03:00 +16°C° 0.1 mm 1 m/S 602 mmHg 95%
04:00 +16°C° 0.1 mm 1 m/S 602 mmHg 95%
05:00 +15°C° 0.1 mm 1 m/S 602 mmHg 95%
06:00 +16°C° 0 mm 1 m/S 602 mmHg 92%
07:00 +18°C° 0 mm 1 m/S 603 mmHg 88%
08:00 +18°C° 0 mm 1 m/S 603 mmHg 84%
09:00 +20°C° 0 mm 1 m/S 603 mmHg 79%
10:00 +20°C° 0 mm 2 m/S 604 mmHg 74%
11:00 +21°C° 0 mm 3 m/S 604 mmHg 68%
12:00 +21°C° 0.4 mm 3 m/S 603 mmHg 68%
13:00 +22°C° 0.4 mm 3 m/S 603 mmHg 68%
14:00 +22°C° 0.4 mm 4 m/S 602 mmHg 67%
15:00 +21°C° 0.5 mm 4 m/S 602 mmHg 72%
16:00 +20°C° 0.5 mm 4 m/S 602 mmHg 77%
17:00 +19°C° 0.5 mm 4 m/S 601 mmHg 81%
18:00 +19°C° 0.4 mm 3 m/S 601 mmHg 85%
19:00 +18°C° 0.4 mm 2 m/S 602 mmHg 89%
20:00 +17°C° 0.4 mm 2 m/S 602 mmHg 93%
21:00 +18°C° 0.5 mm 1 m/S 602 mmHg 93%
22:00 +18°C° 0.5 mm 1 m/S 602 mmHg 93%
23:00 +18°C° 0.5 mm 1 m/S 602 mmHg 93%

11 August, Dienstag

Zeit Temperatur Niederschläge Wind Luftdruck Luftfeuchtigkeit
00:00 +16°C° 0.2 mm 1 m/S 602 mmHg 94%
01:00 +16°C° 0.2 mm 1 m/S 601 mmHg 94%
02:00 +16°C° 0.2 mm 1 m/S 601 mmHg 94%
03:00 +16°C° 0 mm 1 m/S 601 mmHg 94%
04:00 +16°C° 0 mm 1 m/S 601 mmHg 94%
05:00 +16°C° 0 mm 1 m/S 601 mmHg 94%
06:00 +18°C° 0 mm 1 m/S 601 mmHg 87%
07:00 +19°C° 0 mm 1 m/S 602 mmHg 81%
08:00 +20°C° 0 mm 1 m/S 603 mmHg 74%
09:00 +20°C° 0 mm 2 m/S 603 mmHg 67%
10:00 +23°C° 0 mm 2 m/S 603 mmHg 60%
11:00 +24°C° 0 mm 3 m/S 604 mmHg 53%
12:00 +23°C° 0.1 mm 4 m/S 603 mmHg 56%
13:00 +23°C° 0.1 mm 4 m/S 603 mmHg 59%
14:00 +23°C° 0.1 mm 5 m/S 602 mmHg 62%
15:00 +22°C° 0.4 mm 5 m/S 601 mmHg 68%
16:00 +21°C° 0.4 mm 5 m/S 601 mmHg 73%
17:00 +19°C° 0.4 mm 5 m/S 600 mmHg 79%
18:00 +18°C° 0.1 mm 4 m/S 601 mmHg 84%
19:00 +17°C° 0.1 mm 3 m/S 601 mmHg 88%
20:00 +16°C° 0.1 mm 2 m/S 601 mmHg 93%
21:00 +16°C° 0.2 mm 2 m/S 601 mmHg 92%
22:00 +18°C° 0.2 mm 1 m/S 601 mmHg 92%
23:00 +18°C° 0.2 mm 1 m/S 601 mmHg 91%

12 August, Mittwoch

Zeit Temperatur Niederschläge Wind Luftdruck Luftfeuchtigkeit
00:00 +16°C° 0 mm 1 m/S 601 mmHg 92%
01:00 +16°C° 0 mm 1 m/S 601 mmHg 93%
02:00 +16°C° 0 mm 1 m/S 600 mmHg 95%
03:00 +15°C° 0 mm 1 m/S 600 mmHg 95%
04:00 +15°C° 0 mm 1 m/S 600 mmHg 95%
05:00 +15°C° 0 mm 1 m/S 600 mmHg 95%
06:00 +16°C° 0 mm 1 m/S 601 mmHg 89%
07:00 +18°C° 0 mm 1 m/S 602 mmHg 82%
08:00 +19°C° 0 mm 1 m/S 602 mmHg 76%
09:00 +21°C° 0 mm 1 m/S 603 mmHg 71%
10:00 +21°C° 0 mm 2 m/S 603 mmHg 66%
11:00 +23°C° 0 mm 2 m/S 603 mmHg 60%
12:00 +24°C° 0.4 mm 3 m/S 603 mmHg 61%
13:00 +23°C° 0.4 mm 4 m/S 602 mmHg 62%
14:00 +23°C° 0.4 mm 5 m/S 602 mmHg 63%
15:00 +22°C° 0.7 mm 5 m/S 601 mmHg 69%
16:00 +21°C° 0.7 mm 4 m/S 601 mmHg 74%
17:00 +19°C° 0.7 mm 4 m/S 601 mmHg 79%
18:00 +19°C° 0.4 mm 3 m/S 601 mmHg 82%
19:00 +18°C° 0.4 mm 3 m/S 601 mmHg 86%
20:00 +17°C° 0.4 mm 2 m/S 601 mmHg 89%
21:00 +18°C° 0.1 mm 1 m/S 602 mmHg 90%
22:00 +16°C° 0.1 mm 1 m/S 602 mmHg 92%
23:00 +16°C° 0.1 mm 1 m/S 602 mmHg 93%
Mehr zeigen